Hourly Weather Alhos Vedros

Today, 9 March, Tuesday

Time Temperature Precipitation Wind Pressure Humidity
00:00 +9°C° 0 mm 5 mps 761 mmHg 80%
01:00 +8°C° 0 mm 4 mps 760 mmHg 81%
02:00 +7°C° 0 mm 4 mps 760 mmHg 83%
03:00 +8°C° 0 mm 3 mps 760 mmHg 81%
04:00 +7°C° 0 mm 3 mps 761 mmHg 80%
05:00 +7°C° 0 mm 3 mps 761 mmHg 79%
06:00 +8°C° 0 mm 3 mps 761 mmHg 74%
07:00 +9°C° 0 mm 3 mps 761 mmHg 68%
08:00 +10°C° 0 mm 3 mps 762 mmHg 63%
09:00 +12°C° 0 mm 3 mps 762 mmHg 58%
10:00 +14°C° 0 mm 3 mps 762 mmHg 52%
11:00 +16°C° 0 mm 3 mps 762 mmHg 47%
12:00 +17°C° 0 mm 4 mps 762 mmHg 46%
13:00 +17°C° 0 mm 4 mps 762 mmHg 45%
14:00 +18°C° 0 mm 4 mps 761 mmHg 44%
15:00 +15°C° 0 mm 5 mps 761 mmHg 52%
16:00 +14°C° 0 mm 5 mps 761 mmHg 59%
17:00 +13°C° 0 mm 6 mps 761 mmHg 67%
18:00 +12°C° 0 mm 5 mps 762 mmHg 72%
19:00 +9°C° 0 mm 5 mps 763 mmHg 78%
20:00 +8°C° 0 mm 5 mps 763 mmHg 83%
21:00 +8°C° 0 mm 4 mps 763 mmHg 85%
22:00 +8°C° 0 mm 3 mps 764 mmHg 86%
23:00 +8°C° 0 mm 3 mps 764 mmHg 87%

Tomorrow, 10 March, Wednesday

Time Temperature Precipitation Wind Pressure Humidity
00:00 +8°C° 0 mm 3 mps 764 mmHg 88%
01:00 +8°C° 0 mm 3 mps 764 mmHg 88%
02:00 +7°C° 0 mm 2 mps 764 mmHg 89%
03:00 +7°C° 0 mm 2 mps 764 mmHg 89%
04:00 +7°C° 0 mm 2 mps 764 mmHg 89%
05:00 +7°C° 0 mm 2 mps 764 mmHg 90%
06:00 +8°C° 0 mm 2 mps 764 mmHg 85%
07:00 +10°C° 0 mm 2 mps 765 mmHg 81%
08:00 +12°C° 0 mm 2 mps 766 mmHg 76%
09:00 +14°C° 0 mm 2 mps 766 mmHg 67%
10:00 +15°C° 0 mm 2 mps 766 mmHg 59%
11:00 +17°C° 0 mm 2 mps 766 mmHg 51%
12:00 +18°C° 0 mm 2 mps 766 mmHg 49%
13:00 +18°C° 0 mm 2 mps 766 mmHg 47%
14:00 +19°C° 0 mm 3 mps 765 mmHg 46%
15:00 +18°C° 0 mm 3 mps 765 mmHg 53%
16:00 +16°C° 0 mm 3 mps 765 mmHg 61%
17:00 +14°C° 0 mm 3 mps 765 mmHg 68%
18:00 +13°C° 0 mm 3 mps 766 mmHg 73%
19:00 +12°C° 0 mm 3 mps 766 mmHg 78%
20:00 +11°C° 0 mm 3 mps 767 mmHg 83%
21:00 +10°C° 0 mm 2 mps 767 mmHg 85%
22:00 +10°C° 0 mm 2 mps 767 mmHg 87%
23:00 +11°C° 0 mm 1 mps 767 mmHg 89%

Day after tomorrow, 11 March, Thursday

Time Temperature Precipitation Wind Pressure Humidity
00:00 +11°C° 0 mm 1 mps 767 mmHg 90%
01:00 +11°C° 0 mm 1 mps 767 mmHg 91%
02:00 +10°C° 0 mm 0 mps 767 mmHg 91%
03:00 +9°C° 0 mm 0 mps 767 mmHg 92%
04:00 +9°C° 0 mm 0 mps 767 mmHg 92%
05:00 +9°C° 0 mm 0 mps 767 mmHg 93%
06:00 +11°C° 0 mm 0 mps 767 mmHg 90%
07:00 +12°C° 0 mm 0 mps 767 mmHg 86%
08:00 +13°C° 0 mm 0 mps 768 mmHg 83%
09:00 +16°C° 0 mm 1 mps 768 mmHg 78%
10:00 +18°C° 0 mm 1 mps 768 mmHg 72%
11:00 +20°C° 0 mm 1 mps 768 mmHg 67%
12:00 +18°C° 0 mm 2 mps 767 mmHg 68%
13:00 +18°C° 0 mm 2 mps 767 mmHg 69%
14:00 +18°C° 0 mm 3 mps 767 mmHg 70%
15:00 +17°C° 0 mm 3 mps 767 mmHg 72%
16:00 +17°C° 0 mm 3 mps 767 mmHg 74%
17:00 +16°C° 0 mm 3 mps 767 mmHg 76%
18:00 +14°C° 0 mm 3 mps 767 mmHg 79%
19:00 +13°C° 0 mm 3 mps 767 mmHg 82%
20:00 +13°C° 0 mm 2 mps 768 mmHg 85%
21:00 +12°C° 0 mm 2 mps 767 mmHg 87%
22:00 +12°C° 0 mm 2 mps 767 mmHg 89%
23:00 +12°C° 0 mm 2 mps 767 mmHg 91%

12 March, Friday

Time Temperature Precipitation Wind Pressure Humidity
00:00 +12°C° 0 mm 2 mps 767 mmHg 92%
01:00 +12°C° 0 mm 1 mps 767 mmHg 92%
02:00 +11°C° 0 mm 1 mps 766 mmHg 93%
03:00 +12°C° 0 mm 1 mps 766 mmHg 93%
04:00 +12°C° 0 mm 2 mps 766 mmHg 94%
05:00 +12°C° 0 mm 2 mps 766 mmHg 94%
06:00 +12°C° 0 mm 3 mps 767 mmHg 90%
07:00 +13°C° 0 mm 4 mps 767 mmHg 85%
08:00 +13°C° 0 mm 5 mps 767 mmHg 81%
09:00 +14°C° 0 mm 5 mps 767 mmHg 75%
10:00 +15°C° 0 mm 5 mps 767 mmHg 69%
11:00 +15°C° 0 mm 5 mps 767 mmHg 63%
12:00 +15°C° 0 mm 5 mps 767 mmHg 60%
13:00 +16°C° 0 mm 6 mps 767 mmHg 57%
14:00 +16°C° 0 mm 6 mps 766 mmHg 55%
15:00 +15°C° 0 mm 6 mps 766 mmHg 58%
16:00 +14°C° 0 mm 6 mps 766 mmHg 62%
17:00 +13°C° 0 mm 6 mps 766 mmHg 65%
18:00 +11°C° 0 mm 6 mps 766 mmHg 69%
19:00 +10°C° 0 mm 6 mps 767 mmHg 73%
20:00 +9°C° 0 mm 6 mps 767 mmHg 77%
21:00 +8°C° 0 mm 6 mps 767 mmHg 77%
22:00 +8°C° 0 mm 6 mps 767 mmHg 77%
23:00 +8°C° 0 mm 6 mps 767 mmHg 77%

13 March, Saturday

Time Temperature Precipitation Wind Pressure Humidity
00:00 +7°C° 0 mm 5 mps 767 mmHg 78%
01:00 +7°C° 0 mm 5 mps 767 mmHg 78%
02:00 +7°C° 0 mm 5 mps 767 mmHg 79%
03:00 +7°C° 0 mm 5 mps 767 mmHg 81%
04:00 +7°C° 0 mm 5 mps 767 mmHg 83%
05:00 +6°C° 0 mm 5 mps 767 mmHg 84%
06:00 +7°C° 0 mm 5 mps 767 mmHg 80%
07:00 +9°C° 0 mm 5 mps 767 mmHg 76%
08:00 +10°C° 0 mm 5 mps 767 mmHg 71%
09:00 +12°C° 0 mm 5 mps 768 mmHg 65%
10:00 +14°C° 0 mm 5 mps 768 mmHg 59%
11:00 +15°C° 0 mm 5 mps 768 mmHg 53%
12:00 +16°C° 0 mm 5 mps 767 mmHg 52%
13:00 +16°C° 0 mm 5 mps 766 mmHg 51%
14:00 +17°C° 0 mm 5 mps 766 mmHg 49%
15:00 +16°C° 0 mm 5 mps 766 mmHg 56%
16:00 +15°C° 0 mm 5 mps 766 mmHg 62%
17:00 +13°C° 0 mm 6 mps 766 mmHg 68%
18:00 +11°C° 0 mm 6 mps 766 mmHg 72%
19:00 +10°C° 0 mm 5 mps 767 mmHg 75%
20:00 +8°C° 0 mm 5 mps 767 mmHg 78%
21:00 +8°C° 0 mm 5 mps 767 mmHg 80%
22:00 +7°C° 0 mm 4 mps 767 mmHg 82%
23:00 +7°C° 0 mm 4 mps 767 mmHg 84%

14 March, Sunday

Time Temperature Precipitation Wind Pressure Humidity
00:00 +7°C° 0 mm 4 mps 767 mmHg 85%
01:00 +6°C° 0 mm 4 mps 767 mmHg 86%
02:00 +6°C° 0 mm 4 mps 767 mmHg 87%
03:00 +6°C° 0 mm 4 mps 767 mmHg 87%
04:00 +6°C° 0 mm 4 mps 767 mmHg 88%
05:00 +5°C° 0 mm 4 mps 767 mmHg 88%
06:00 +7°C° 0 mm 4 mps 767 mmHg 82%
07:00 +9°C° 0 mm 3 mps 767 mmHg 76%
08:00 +10°C° 0 mm 3 mps 767 mmHg 71%
09:00 +12°C° 0 mm 3 mps 767 mmHg 64%
10:00 +16°C° 0 mm 3 mps 767 mmHg 57%
11:00 +18°C° 0 mm 2 mps 767 mmHg 50%
12:00 +19°C° 0 mm 2 mps 767 mmHg 47%
13:00 +20°C° 0 mm 2 mps 766 mmHg 45%
14:00 +21°C° 0 mm 2 mps 766 mmHg 42%
15:00 +20°C° 0 mm 2 mps 765 mmHg 47%
16:00 +19°C° 0 mm 2 mps 765 mmHg 53%
17:00 +18°C° 0 mm 3 mps 765 mmHg 58%
18:00 +16°C° 0 mm 3 mps 765 mmHg 61%
19:00 +14°C° 0 mm 3 mps 766 mmHg 65%
20:00 +12°C° 0 mm 3 mps 766 mmHg 68%
21:00 +12°C° 0 mm 3 mps 766 mmHg 69%
22:00 +11°C° 0 mm 3 mps 766 mmHg 70%
23:00 +11°C° 0 mm 3 mps 766 mmHg 71%
Show more